Weather Roundup
Issued by NWS Chicago, IL

Home | Current Version | Previous Version | Text Only | Print | Product List | Glossary Off
Versions: 1 2 3 4 5 6 7 8 9 10 11 12 13 14 15 16 17 18 19 20 21 22 23 24 25 26 27 28 29 30 31 32 33 34 35 36 37 38 39 40 41 42 43 44 45 46 47 48 49 50

000
NZUS59 KLOT 032121
HRRLOT

CHICAGO AREA WEATHER ROUNDUP
NATIONAL WEATHER SERVICE CHICAGO/ROMEOVILLE IL
400 PM CDT MON AUG 03 2015

NOTE: "FAIR" INDICATES FEW OR NO CLOUDS BELOW 12,000 FEET WITH NO
SIGNIFICANT WEATHER AND/OR OBSTRUCTIONS TO VISIBILITY.

* THESE STATIONS ARE NOT UNDER NWS QUALITY CONTROL. THEY ALSO MAY NOT
  REPORT WEATHER SUCH AS PRECIPITATION OR FOG.

ILZ005-006-012>014-019>023-032200-
NORTHEAST ILLINOIS

CITY           SKY/WX    TMP DP  RH WIND       PRES   REMARKS
OHARE          MOSUNNY   82  47  29 W15       29.85S HX  80
MIDWAY         MOSUNNY   83  46  27 W12G20    29.85S HX  81
AURORA         SUNNY     80  50  34 W13G21    29.88S HX  80
LANSING*       SUNNY     82  46  28 W10       29.86S HX  80
JOLIET*        SUNNY     83  51  32 W9G17     29.88R HX  81
WAUKEGAN       SUNNY     78  49  35 VRB6G18   29.85R
DUPAGE AIRPORT SUNNY     80  49  33 NW10      29.87S
WHEELING       SUNNY     81  45  28 N16G22    29.86S HX  80
KANKAKEE*      SUNNY     83  56  39 W10       29.87S HX  82
MORRIS*        SUNNY     80  52  38 NW7       29.88S HX  80
LEWIS AIRPORT* SUNNY     79  47  32 NW12G17   29.87S
NORTHERLY IS     N/A     81  42  25 W5          N/A
$$

WIZ051-052-058>065-066-070>072-032200-
SOUTHEAST WISCONSIN

CITY           SKY/WX    TMP DP  RH WIND       PRES   REMARKS
MILWAUKEE      MOSUNNY   81  47  30 W16G25    29.83S HX  80
KENOSHA*       SUNNY     79  50  36 NW15G22   29.85S
RACINE*        MOSUNNY   80  47  31 W14G25    29.85S
BURLINGTON     MOSUNNY   78  45  30 W16       29.85S
WAUKESHA       MOSUNNY   79  46  31 NW18G29   29.85S
WEST BEND      MOSUNNY   79  43  27 W16G22    29.82S
$$

INZ001>003-010>013-019-020-032200-
NORTHWEST INDIANA

CITY           SKY/WX    TMP DP  RH WIND       PRES   REMARKS
GARY*          SUNNY     79  57  47 NE8       29.86S HX  80
MICHIGAN CITY* NOT AVBL
RENSSELAER*    NOT AVBL
VALPARAISO     SUNNY     79  57  46 VRB6      29.86S HX  80
$$

LMZ740>746-032200-
SOUTHERN LAKE MICHIGAN

STATION/POSITION TIME  SKY/WX   TEMP WIND        PRES    VSBY
                                AIR  DIR/SP/G
                 (UTC)          (F)  (DEG/KT/KT) (MB)    (MI)
HARRISON CRIB    2100            78  290/ 14/ 18   N/A
BURNHAM HARBOR   2100            82  280/ 13/ 16   N/A
CALUMET HARBOR   2100            75   70/  6/  9   N/A
BURNS HARBOR     2000            75   70/  5/  7 1011.5F
MICHIGAN CITY    2100            77  340/  5/  6   N/A
$$

ABBREVIATIONS USED IN REMARKS
   TC - TEMPERATURE IN CELSIUS
  WCI - WIND CHILL INDEX
   HX - HEAT INDEX
  VSB - VISIBILITY
$$



USA.gov is the U.S. government's official web portal to all federal, state and local government web resources and services.